Theta_e
310 303 300 302 306 308 312 311 310 314 321 317 315 313 323 325 329 330 331 331 332 333 336 341 342 341 340 343 345 343 346 348 346 351 348 347 343 345 346 347 356 356 356 357
306 302 307 310 309 308 311 310 311 314 317 316 313 312 317 324 328 329 331 329 332 333 335 337 337 339 340 343 344 345 347 349 348 350 348 346 347 346 347 347 353 358 357 358
304 307 313 311 307 306 308 308 309 309 313 315 313 310 314 323 328 326 331 333 334 333 334 335 335 337 340 343 344 345 347 352 350 351 350 349 348 347 346 345 344 354 355 356
306 312 311 309 307 308 303 312 313 312 309 302 313 300 308 315 322 326 331 333 332 333 335 336 335 336 339 343 347 346 349 354 351 352 350 347 345 342 344 343 345 351 356 358
304 309 309 307 308 311 307 312 311 311 308 306 309 304 308 312 312 323 329 330 330 335 335 335 336 338 338 344 347 348 349 352 353 352 350 349 345 344 342 344 343 348 351 354
307 316 312 310 312 312 314 309 307 309 307 299 303 306 306 309 312 323 328 330 333 336 337 336 339 339 339 345 347 350 348 350 353 352 352 348 346 342 342 339 341 347 352 355
305 307 314 314 308 311 309 302 294 293 295 295 301 300 302 312 315 318 324 329 331 335 335 336 336 337 339 342 345 349 349 348 352 351 350 352 348 347 342 341 340 344 351 353
297 297 308 314 308 304 305 303 294 289 291 295 300 296 302 311 315 320 327 330 333 333 336 336 337 338 338 340 344 348 348 349 351 354 351 349 353 350 348 348 347 344 349 352
296 297 312 313 311 307 302 299 301 291 294 291 295 299 306 311 312 313 317 329 330 331 336 337 338 338 338 341 344 346 349 349 351 352 354 351 350 356 349 345 349 343 347 351
301 294 308 312 314 309 304 304 295 296 287 288 294 297 299 304 307 311 312 321 327 332 336 338 338 339 339 341 345 347 350 350 352 353 355 355 352 350 355 348 346 352 348 348
298 297 298 306 305 304 301 299 300 296 294 289 289 295 305 307 309 310 313 315 324 330 335 339 340 340 340 341 344 346 348 352 353 355 354 356 356 354 353 354 348 352 352 355
298 296 294 297 306 311 306 302 300 295 291 293 292 296 310 310 312 313 315 316 322 329 335 340 340 341 341 340 342 344 347 352 354 356 356 355 357 357 353 353 354 349 355 354
298 293 292 295 300 305 304 304 303 299 297 293 292 295 311 311 312 314 315 317 319 327 332 338 340 340 341 341 341 343 345 350 353 356 356 356 356 357 356 355 353 356 351 357
303 295 292 292 296 300 300 304 303 301 296 295 298 297 307 310 311 313 315 319 318 326 331 336 339 340 342 342 341 342 344 347 353 355 356 356 357 357 358 358 357 352 357 355
295 290 297 301 303 305 305 304 304 300 300 298 300 301 306 309 313 315 317 319 322 322 330 334 337 339 342 342 342 343 344 346 349 354 356 357 359 359 359 359 360 359 355 358
293 290 296 298 304 305 304 307 306 305 304 303 303 301 311 313 316 317 317 318 319 322 327 327 332 337 341 343 343 344 344 346 348 350 354 357 359 359 359 359 359 360 360 357
290 291 291 291 302 304 298 305 305 305 306 305 300 304 311 311 315 314 315 316 316 316 318 323 326 330 340 344 346 346 347 348 347 348 350 355 357 358 359 360 360 359 360 361
290 290 291 291 298 290 302 311 311 307 308 307 306 312 312 314 317 317 317 315 317 321 322 321 327 325 326 336 347 348 349 349 349 348 349 351 355 356 358 358 358 359 360 360
295 291 288 289 294 298 304 305 305 304 306 313 313 314 316 319 322 322 327 327 327 328 330 332 333 333 334 333 331 343 349 349 350 350 351 352 355 355 356 356 358 359 359 359
295 295 292 292 291 292 298 305 307 309 299 310 313 317 315 319 312 316 325 327 327 330 332 334 334 335 334 334 336 339 344 348 347 349 353 356 356 357 356 357 358 359 360 359
290 291 289 290 290 296 300 304 311 298 300 308 308 311 312 309 313 316 322 324 328 329 329 332 336 338 336 337 335 336 334 337 348 351 352 356 357 357 359 358 360 359 359 360
290 289 288 289 290 288 303 303 297 305 308 308 307 307 309 309 310 311 315 320 322 326 329 331 331 334 339 339 335 330 337 338 348 349 350 351 356 355 358 358 359 360 360 359
287 291 287 291 291 300 303 302 305 306 304 304 305 305 307 308 309 310 310 317 320 323 328 330 330 335 338 344 338 334 339 349 348 349 352 352 354 358 352 358 357 359 359 359
293 296 290 291 295 297 302 303 304 303 304 305 305 306 306 305 308 308 309 316 318 323 325 329 332 336 344 353 351 351 353 352 350 352 350 356 356 356 355 358 360 360 360 359
292 294 290 290 294 296 301 300 302 303 304 306 308 307 306 306 307 309 310 313 314 315 325 326 331 333 344 347 353 353 355 354 354 354 358 357 356 356 356 346 333 355 359 352
293 290 288 287 293 293 294 298 301 300 301 303 305 306 310 309 306 310 310 311 311 312 312 324 328 333 344 344 345 347 350 351 352 355 356 355 354 355 356 343 326 306 306 305
Wind_Speed
18 11 22 23 18 12 13 17 15 13 14 10 14 11 30 28 19 22 15 19 20 19 20 26 25 20 20 17 17 18 16 15 11 6 7 4 5 3 3 3 7 8 6 7
12 25 19 15 15 19 19 21 19 15 16 10 10 13 14 34 30 30 20 11 19 19 17 19 17 18 20 18 19 15 15 17 13 9 8 4 5 4 4 3 6 7 7 7
24 12 20 20 20 23 22 22 18 15 15 17 16 16 10 22 25 24 33 33 25 26 24 19 19 16 18 19 20 17 16 17 14 11 7 4 3 2 3 3 3 5 7 7
25 20 25 25 25 22 21 19 21 21 13 6 2 4 8 13 23 26 28 24 26 24 22 20 21 19 18 18 18 18 16 16 14 13 12 12 10 8 4 5 4 5 8 7
24 23 28 26 26 23 15 14 23 23 15 6 18 11 14 10 16 29 28 30 25 23 22 24 26 24 21 19 19 18 18 16 15 15 13 10 8 4 4 3 7 6 7 8
25 14 19 27 23 19 15 16 15 17 13 14 12 17 17 14 13 26 30 30 28 24 21 24 26 22 20 18 19 17 18 17 16 15 11 14 9 8 5 5 4 4 5 7
19 30 23 18 22 21 19 11 9 12 13 13 10 7 11 12 13 18 29 30 29 28 28 26 25 23 20 21 22 19 21 20 18 18 17 11 13 10 10 7 7 6 5 6
21 21 31 22 22 16 22 20 10 16 9 10 8 10 10 12 7 15 22 31 31 27 26 28 28 26 23 23 24 22 22 21 21 19 19 17 9 10 10 8 5 7 6 8
14 28 16 28 20 20 20 22 12 3 7 3 4 7 13 17 15 9 10 24 33 29 29 29 28 25 24 22 25 25 22 21 20 20 17 17 16 12 13 13 5 5 6 7
26 17 20 21 26 21 18 12 13 9 10 10 10 13 16 15 20 13 11 19 25 27 30 29 26 25 23 23 22 23 21 22 21 20 17 17 17 15 8 9 9 8 7 8
20 14 30 16 26 28 12 13 16 6 6 7 6 11 11 22 22 21 12 12 20 24 28 28 26 24 25 24 20 22 21 22 20 19 17 15 15 14 14 9 11 10 8 7
18 11 17 27 15 24 16 15 15 11 12 5 5 13 6 6 27 22 18 12 16 23 25 27 27 25 23 23 21 23 21 21 20 19 18 18 15 15 15 16 9 13 11 11
16 8 6 17 16 20 29 23 18 8 6 10 9 11 4 12 15 22 14 15 10 19 20 25 25 23 22 23 22 21 21 21 20 18 18 17 17 16 16 17 17 10 15 12
24 15 18 12 15 7 13 24 20 16 10 9 16 4 11 12 10 9 9 10 9 15 20 23 23 22 22 22 22 21 20 20 20 20 19 19 19 18 18 17 16 17 13 15
12 11 16 14 12 9 15 26 23 20 16 15 12 8 8 1 7 7 7 8 10 8 20 21 23 22 23 22 22 21 22 21 21 21 21 21 19 19 18 17 17 16 17 14
17 10 16 5 9 10 17 19 26 20 19 16 10 9 9 7 8 14 11 14 11 9 10 10 9 17 22 23 22 21 20 21 21 21 22 19 19 18 20 18 18 17 17 17
16 10 10 5 4 5 5 17 16 20 18 19 17 9 7 6 10 13 11 10 10 10 10 9 9 8 10 16 19 21 20 19 21 21 20 20 19 20 19 19 17 19 18 16
23 18 5 6 5 2 8 8 9 16 13 14 12 9 15 10 7 10 8 12 10 11 10 10 11 9 3 6 15 17 15 16 19 19 18 18 18 20 19 18 19 18 17 18
18 11 5 3 0 3 4 14 15 2 12 25 17 4 11 19 23 17 16 16 13 11 8 7 8 6 8 9 2 9 15 14 13 18 16 19 17 19 18 20 19 18 16 16
15 8 3 5 4 3 18 26 30 15 12 22 21 24 18 18 15 5 12 15 16 14 12 12 9 6 8 6 7 3 7 15 15 13 13 11 15 17 19 19 19 16 17 17
8 4 3 6 3 7 20 28 17 12 5 14 19 19 22 22 9 7 14 14 12 12 14 14 14 11 7 5 5 5 3 1 7 8 10 12 13 15 16 15 14 15 15 14
6 2 1 2 5 5 16 16 20 3 8 11 14 16 17 15 16 15 13 13 12 11 13 14 13 13 13 9 4 3 3 3 2 7 6 7 9 11 8 12 11 12 13 14
6 3 4 8 6 4 7 15 14 14 9 10 10 11 10 12 11 10 10 10 9 9 8 9 10 12 15 11 4 5 5 1 3 5 7 9 10 10 8 10 9 9 11 11
10 9 4 12 12 17 17 15 20 17 22 9 8 7 8 8 9 8 8 8 8 8 8 8 12 15 10 10 8 5 6 3 2 5 6 7 8 7 7 6 8 8 8 9
6 12 18 15 9 21 9 17 17 21 21 20 19 11 5 5 5 5 6 7 8 9 9 10 11 14 10 6 7 7 7 8 8 5 6 6 6 9 7 5 3 4 6 6
7 9 5 11 22 17 26 24 21 20 20 20 16 17 15 7 5 4 4 3 5 9 12 11 11 12 16 5 6 7 7 8 9 6 4 4 5 5 5 8 6 15 12 12
Wind_Direction
202 211 221 218 224 235 236 243 230 243 226 213 211 214 171 187 154 142 172 194 193 196 178 183 189 186 167 163 159 168 152 162 161 155 159 160 193 215 239 225 169 165 166 164
198 226 221 215 217 233 235 245 251 232 239 222 241 229 164 180 164 159 167 236 198 195 193 177 174 169 169 166 166 162 153 161 168 170 173 157 175 195 202 213 167 173 170 174
209 218 218 213 218 221 231 234 245 244 243 242 186 221 214 165 162 159 168 197 202 187 189 180 180 174 167 168 172 167 164 161 166 163 160 164 177 192 179 206 187 193 174 170
227 228 199 223 220 218 223 233 246 253 260 188 229 252 238 175 174 167 171 162 205 194 188 180 182 178 175 174 173 171 166 162 166 162 173 187 201 204 186 181 188 181 174 181
216 197 225 211 221 217 226 227 238 250 258 256 203 209 232 201 192 175 172 179 192 188 189 183 187 183 184 171 174 175 173 169 169 176 181 184 194 179 182 174 183 182 191 188
230 209 219 225 218 224 220 221 248 246 247 252 237 205 235 204 185 169 178 180 190 170 193 191 189 184 178 170 171 173 177 178 173 180 177 192 186 186 186 196 189 184 192 195
238 226 221 227 220 202 217 203 229 237 228 232 229 231 226 210 209 185 184 177 179 181 185 188 182 185 178 170 175 174 177 185 184 185 195 188 194 185 192 198 197 187 175 191
228 233 215 214 225 194 207 215 208 215 208 231 235 240 251 260 236 224 185 169 178 181 193 181 182 182 183 175 175 178 183 186 189 187 193 200 196 200 203 194 190 197 184 184
219 242 204 227 212 216 204 216 215 260 211 248 207 254 262 259 270 209 208 176 177 186 192 179 182 182 183 177 177 180 182 189 189 193 192 197 201 204 204 209 190 192 194 187
247 270 224 219 229 231 212 173 214 211 198 221 234 218 232 234 246 240 211 195 184 176 176 176 179 181 182 183 181 179 181 187 190 193 196 199 202 205 198 190 199 202 208 212
312 242 251 240 209 218 198 194 200 181 188 179 207 239 225 223 221 230 218 183 191 173 173 173 177 181 181 183 176 180 181 186 190 194 198 199 201 203 206 196 202 208 207 208
289 293 235 240 254 210 225 212 196 203 229 222 196 258 316 261 207 208 216 206 180 176 171 169 175 180 178 181 179 182 182 184 189 191 192 200 198 197 203 211 196 205 214 213
329 322 273 249 254 266 214 201 212 180 145 217 224 260 264 312 198 192 193 199 162 166 166 169 173 178 178 182 182 183 187 185 187 188 194 197 203 201 202 208 211 199 211 215
305 252 243 258 231 223 220 204 199 203 200 212 240 233 301 329 154 141 153 145 172 144 159 171 174 177 179 181 182 186 187 189 183 189 193 198 199 202 207 205 207 213 209 212
295 264 256 264 270 278 270 200 194 206 209 196 234 183 217 329 48 132 143 131 142 147 162 165 178 179 180 180 184 187 189 188 187 188 195 200 200 202 205 208 205 207 213 212
305 285 323 275 288 277 285 243 193 199 212 223 247 224 209 171 90 72 75 81 75 67 123 116 143 178 182 181 185 186 189 191 189 194 199 198 198 199 205 205 207 208 209 212
285 319 331 307 317 293 301 252 196 203 196 209 223 210 151 136 130 130 114 97 93 87 85 88 97 124 152 177 182 185 189 188 194 199 200 197 199 200 203 204 202 209 210 207
279 295 296 285 42 135 256 344 326 208 195 203 225 168 157 154 65 50 94 115 94 71 56 55 56 36 76 142 184 189 182 184 191 200 200 200 197 201 202 204 207 208 208 210
255 272 296 299 202 307 271 5 337 76 47 10 2 251 159 106 68 38 39 58 67 65 64 62 71 58 44 36 235 174 183 187 179 197 194 198 193 196 199 205 207 207 209 213
247 257 243 348 287 183 356 342 329 305 50 12 12 28 116 89 79 35 32 43 42 40 35 23 20 46 23 15 12 71 184 184 195 192 189 178 190 196 200 203 206 205 209 213
196 299 309 297 311 0 339 341 359 58 42 21 15 29 47 64 63 37 34 31 38 35 25 16 16 8 333 335 53 17 69 147 234 197 173 181 185 191 198 200 200 202 206 211
45 257 204 323 338 0 337 356 48 8 37 42 22 20 38 39 37 28 20 25 23 25 19 13 9 348 338 311 347 315 263 252 257 198 201 196 184 195 179 184 193 197 201 208
21 118 204 342 348 311 48 314 10 19 26 14 28 11 26 30 25 22 6 14 15 5 22 11 3 339 332 319 271 274 258 232 221 222 209 204 198 193 180 172 180 189 197 204
329 9 316 352 341 333 324 1 358 355 348 351 357 5 8 23 15 13 8 4 355 356 12 360 3 346 332 358 19 28 5 321 277 272 240 198 185 177 169 166 180 189 193 204
11 347 339 299 309 341 308 326 331 334 335 339 346 318 308 338 18 36 15 4 344 342 352 10 359 345 315 3 19 13 5 5 327 269 233 197 177 176 168 103 43 211 196 198
18 333 313 283 301 287 280 296 307 311 313 317 322 332 341 2 354 49 33 344 333 333 345 353 358 339 331 14 25 15 5 355 343 302 243 199 175 169 158 144 110 43 52 57